JE4YIZ-13 Weather Reports


Display with metric or nautical units.
time (UTC)temp
F
wind
direction
speed
MPH
gust
MPH
rain 1hr
in
rain 24hr
in
rain mn
in
humidity
%
barometer
mb
20260902110520 82 172 1.0 6.0 0.00 0.00 0.00 79 1009.7
20260902110026 82 175 2.0 6.0 0.00 0.00 0.00 79 1009.6
20260902105536 82 129 1.0 4.0 0.00 0.00 0.00 79 1009.5
20260902105018 82 153 0.0 3.0 0.00 0.00 0.00 79 1009.5
20260902104519 82 221 0.0 4.0 0.00 0.00 0.00 79 1009.4
20260902103558 82 107 1.0 5.0 0.00 0.00 0.00 79 1009.5
20260902103038 82 294 2.0 7.0 0.00 0.00 0.00 79 1009.4
20260902102526 83 198 1.0 3.0 0.00 0.00 0.00 78 1009.5
20260902102059 83 139 1.0 3.0 0.00 0.00 0.00 78 1009.4
20260902101541 83 102 1.0 5.0 0.00 0.00 0.00 78 1009.5
20260902101029 83 122 1.0 7.0 0.00 0.00 0.00 78 1009.4
20260902100539 83 89 2.0 7.0 0.00 0.00 0.00 78 1009.4
20260902100019 83 117 1.0 4.0 0.00 0.00 0.00 78 1009.4
20260902095524 83 153 1.0 11.0 0.00 0.00 0.00 78 1009.4
20260902095033 83 55 3.0 11.0 0.00 0.00 0.00 78 1009.4
20260902094542 83 132 1.0 7.0 0.00 0.00 0.00 78 1009.4
20260902094023 83 108 3.0 7.0 0.00 0.00 0.00 78 1009.5
20260902093531 83 143 4.0 7.0 0.00 0.00 0.00 77 1009.4
20260902093100 84 35 4.0 9.0 0.00 0.00 0.00 77 1009.5
20260902092520 84 100 3.0 9.0 0.00 0.00 0.00 76 1009.4
20260902092026 84 188 1.0 7.0 0.00 0.00 0.00 75 1009.4
20260902091535 84 80 4.0 10.0 0.00 0.00 0.00 75 1009.4
20260902091017 84 126 3.0 10.0 0.00 0.00 0.00 74 1009.4
20260902090526 84 74 3.0 8.0 0.00 0.00 0.00 74 1009.4
20260902090046 85 319 2.0 8.0 0.00 0.00 0.00 74 1009.3
20260902085516 85 129 1.0 5.0 0.00 0.00 0.00 73 1009.1
20260902085024 85 202 2.0 6.0 0.00 0.00 0.00 73 1009.2
20260902084554 85 165 2.0 7.0 0.00 0.00 0.00 72 1009.2
20260902084059 86 98 3.0 7.0 0.00 0.00 0.00 71 1009.2
20260902083540 86 174 1.0 7.0 0.00 0.00 0.00 72 1009.2
20260902083026 86 103 3.0 7.0 0.00 0.00 0.00 72 1009.2
20260902082558 86 61 3.0 6.0 0.00 0.00 0.00 72 1009.3
20260902082018 86 70 3.0 7.0 0.00 0.00 0.00 71 1009.4
20260902081527 87 43 5.0 7.0 0.00 0.00 0.00 70 1009.1
20260902081036 87 93 3.0 10.0 0.00 0.00 0.00 69 1009.0
20260902080518 87 73 4.0 9.0 0.00 0.00 0.00 68 1008.9
20260902080021 88 33 3.0 9.0 0.00 0.00 0.00 67 1008.8
20260902075531 88 96 5.0 9.0 0.00 0.00 0.00 67 1008.9
20260902075041 88 210 3.0 10.0 0.00 0.00 0.00 67 1008.9
20260902074522 89 93 3.0 6.0 0.00 0.00 0.00 66 1008.9
20260902074031 89 155 2.0 7.0 0.00 0.00 0.00 66 1008.9
20260902073542 89 165 3.0 7.0 0.00 0.00 0.00 66 1008.9
20260902073021 89 104 2.0 7.0 0.00 0.00 0.00 66 1008.9
20260902072526 89 247 2.0 9.0 0.00 0.00 0.00 67 1008.9
20260902072034 88 93 3.0 10.0 0.00 0.00 0.00 66 1008.8
20260902071537 89 48 5.0 10.0 0.00 0.00 0.00 65 1008.8
20260902071025 89 17 3.0 8.0 0.00 0.00 0.00 66 1008.8
20260902070605 89 277 4.0 7.0 0.00 0.00 0.00 65 1008.8
20260902070018 89 142 2.0 12.0 0.00 0.00 0.00 66 1008.9
20260902065527 89 191 4.0 12.0 0.00 0.00 0.00 66 1008.8
20260902065032 89 193 4.0 9.0 0.00 0.00 0.00 66 1008.9
20260902064541 89 63 6.0 9.0 0.00 0.00 0.00 67 1008.9
20260902064022 89 300 3.0 9.0 0.00 0.00 0.00 68 1009.0
20260902063534 88 294 4.0 8.0 0.00 0.00 0.00 67 1009.1
20260902063042 89 78 3.0 9.0 0.00 0.00 0.00 67 1009.1
20260902062522 89 47 4.0 9.0 0.00 0.00 0.00 66 1009.2
20260902062054 88 113 3.0 6.0 0.00 0.00 0.00 68 1009.3
20260902061516 87 45 3.0 12.0 0.00 0.00 0.00 69 1009.4
20260902061035 87 71 5.0 12.0 0.00 0.00 0.00 68 1009.5
20260902060519 87 129 2.0 8.0 0.00 0.00 0.00 67 1009.4
20260902060025 88 19 4.0 8.0 0.00 0.00 0.00 67 1009.5
20260902055556 88 124 5.0 8.0 0.00 0.00 0.00 66 1009.3
20260902055017 89 67 3.0 8.0 0.00 0.00 0.00 66 1009.3
20260902054517 89 105 4.0 7.0 0.00 0.00 0.00 65 1009.4
20260902054022 89 139 4.0 8.0 0.00 0.00 0.00 66 1009.5
20260902053532 88 103 4.0 8.0 0.00 0.00 0.00 66 1009.5
20260902053040 88 132 5.0 13.0 0.00 0.00 0.00 67 1009.5
20260902052522 88 61 5.0 13.0 0.00 0.00 0.00 67 1009.6
20260902052051 89 61 4.0 9.0 0.00 0.00 0.00 66 1009.7
20260902051540 89 104 4.0 10.0 0.00 0.00 0.00 66 1009.6
20260902051021 89 89 5.0 10.0 0.00 0.00 0.00 65 1009.7
20260902050029 89 74 6.0 11.0 0.00 0.00 0.00 63 1009.7
20260902045534 90 162 3.0 9.0 0.00 0.00 0.00 63 1009.7
20260902045042 89 65 3.0 9.0 0.00 0.00 0.00 63 1009.8
20260902044524 89 358 6.0 14.0 0.00 0.00 0.00 62 1009.8
20260902044030 90 21 8.0 14.0 0.00 0.00 0.00 60 1009.9
20260902043540 90 95 3.0 9.0 0.00 0.00 0.00 61 1009.8
20260902043019 90 241 4.0 9.0 0.00 0.00 0.00 61 1009.9
20260902042527 90 120 3.0 9.0 0.00 0.00 0.00 62 1009.7
20260902042032 91 91 5.0 9.0 0.00 0.00 0.00 60 1009.8
20260902041536 90 134 2.0 8.0 0.00 0.00 0.00 60 1009.8
20260902041022 90 275 3.0 8.0 0.00 0.00 0.00 60 1009.8
20260902040551 90 119 4.0 11.0 0.00 0.00 0.00 60 1010.0
20260902040038 90 268 3.0 11.0 0.00 0.00 0.00 61 1009.9
20260902035540 89 203 3.0 9.0 0.00 0.00 0.00 60 1010.0
20260902035028 90 191 3.0 9.0 0.00 0.00 0.00 60 1010.1
20260902034538 90 103 3.0 8.0 0.00 0.00 0.00 61 1010.0
20260902033530 89 172 3.0 7.0 0.00 0.00 0.00 62 1010.2
20260902033058 89 302 2.0 7.0 0.00 0.00 0.00 64 1010.2
20260902032519 89 219 3.0 8.0 0.00 0.00 0.00 63 1010.2
20260902032029 89 231 3.0 8.0 0.00 0.00 0.00 62 1010.2
20260902031538 88 1 3.0 7.0 0.00 0.00 0.00 65 1010.2
20260902031018 88 46 4.0 7.0 0.00 0.00 0.00 64 1010.3
20260902030538 89 79 4.0 11.0 0.00 0.00 0.00 66 1010.3
20260902030040 88 251 7.0 11.0 0.00 0.00 0.00 65 1010.4
20260902025550 88 78 4.0 9.0 0.00 0.00 0.00 66 1010.4
20260902025037 88 49 4.0 11.0 0.00 0.00 0.00 66 1010.4
20260902024023 88 47 4.0 9.0 0.00 0.00 0.00 66 1010.5
20260902023530 88 30 5.0 11.0 0.00 0.00 0.00 65 1010.6
20260902023036 88 114 3.0 9.0 0.00 0.00 0.00 67 1010.6
20260902022518 88 50 5.0 11.0 0.00 0.00 0.00 66 1010.6
20260902021515 88 120 4.0 9.0 0.00 0.00 0.00 65 1010.8
20260902021023 88 117 3.0 7.0 0.00 0.00 0.00 67 1010.8
20260902020553 87 52 4.0 9.0 0.00 0.00 0.00 68 1010.9
20260902020040 87 93 3.0 10.0 0.00 0.00 0.00 69 1010.8
20260902015519 87 62 6.0 10.0 0.00 0.00 0.00 68 1010.8
20260902015023 86 66 4.0 11.0 0.00 0.00 0.00 70 1010.8
20260902014519 86 46 6.0 13.0 0.00 0.00 0.00 68 1010.9
20260902014028 87 74 8.0 13.0 0.00 0.00 0.00 68 1010.9
20260902013537 87 44 6.0 10.0 0.00 0.00 0.00 68 1010.9
20260902013043 87 55 4.0 10.0 0.00 0.00 0.00 67 1010.9
20260902012523 87 140 5.0 8.0 0.00 0.00 0.00 65 1010.9
20260902012030 87 91 3.0 7.0 0.00 0.00 0.00 67 1010.8
20260902011540 87 121 3.0 9.0 0.00 0.00 0.00 69 1010.8
20260902011021 87 67 4.0 10.0 0.00 0.00 0.00 68 1010.9
20260902010527 87 174 5.0 9.0 0.00 0.00 0.00 67 1011.0
20260902010035 87 67 2.0 9.0 0.00 0.00 0.00 69 1010.9
20260902005604 87 62 5.0 9.0 0.00 0.00 0.00 68 1010.9
20260902005016 87 176 2.0 8.0 0.00 0.00 0.00 69 1010.8
20260902004546 87 94 2.0 8.0 0.00 0.00 0.00 69 1010.8
20260902004034 87 114 2.0 8.0 0.00 0.00 0.00 70 1010.8
20260902003544 86 75 4.0 8.0 0.00 0.00 0.00 69 1010.7
20260902003038 86 42 2.0 7.0 0.00 0.00 0.00 69 1010.8
20260902002520 86 44 3.0 7.0 0.00 0.00 0.00 69 1010.8
20260902002029 86 123 3.0 8.0 0.00 0.00 0.00 70 1010.8
20260902001539 86 92 2.0 9.0 0.00 0.00 0.00 71 1010.8
20260902001019 85 112 2.0 9.0 0.00 0.00 0.00 73 1010.7
20260902000550 85 77 4.0 10.0 0.00 0.00 0.00 72 1010.7
20260902000026 85 84 6.0 10.0 0.00 0.00 0.00 73 1010.7
20260901235531 85 95 4.0 10.0 0.00 0.00 0.00 73 1010.7
20260901235039 85 53 3.0 8.0 0.00 0.00 0.00 73 1010.6
20260901234520 85 64 5.0 9.0 0.00 0.00 0.00 72 1010.7
20260901234049 85 64 5.0 9.0 0.00 0.00 0.00 72 1010.6
20260901233535 85 89 2.0 7.0 0.00 0.00 0.00 73 1010.6
20260901233041 85 77 3.0 8.0 0.00 0.00 0.00 73 1010.6
20260901232524 85 78 4.0 9.0 0.00 0.00 0.00 72 1010.5
20260901232033 85 65 4.0 6.0 0.00 0.00 0.00 72 1010.5
20260901231019 84 41 4.0 8.0 0.00 0.00 0.00 74 1010.5
20260901230529 84 33 4.0 8.0 0.00 0.00 0.00 74 1010.4
20260901230035 84 78 4.0 6.0 0.00 0.00 0.00 75 1010.4
20260901225517 84 101 3.0 7.0 0.00 0.00 0.00 75 1010.4
20260901225025 84 88 3.0 7.0 0.00 0.00 0.00 77 1010.5
20260901224533 84 53 4.0 7.0 0.00 0.00 0.00 78 1010.6
20260901224029 84 108 1.0 5.0 0.00 0.00 0.00 78 1010.6
20260901223539 83 68 2.0 5.0 0.00 0.00 0.00 79 1010.5
20260901223040 83 133 1.0 4.0 0.00 0.00 0.00 79 1010.6
20260901222526 83 118 1.0 4.0 0.00 0.00 0.00 79 1010.5
20260901222035 82 93 1.0 6.0 0.00 0.00 0.00 79 1010.5
20260901221517 82 105 2.0 6.0 0.00 0.00 0.00 80 1010.6
20260901221017 82 85 2.0 5.0 0.00 0.00 0.00 80 1010.5
20260901220543 81 64 3.0 5.0 0.00 0.00 0.00 81 1010.6
20260901220022 81 75 2.0 4.0 0.00 0.00 0.00 81 1010.6
20260901215530 81 104 1.0 3.0 0.00 0.00 0.00 82 1010.6
20260901215101 81 133 1.0 2.0 0.00 0.00 0.00 83 1010.6
20260901214520 81 102 1.0 2.0 0.00 0.00 0.00 83 1010.6
20260901214049 81 136 0.0 1.0 0.00 0.00 0.00 84 1010.7
20260901213540 80 114 0.0 2.0 0.00 0.00 0.00 84 1010.6
20260901213015 80 100 1.0 4.0 0.00 0.00 0.00 84 1010.7
20260901212539 80 88 1.0 4.0 0.00 0.00 0.00 84 1010.6
20260901212022 80 122 0.0 4.0 0.00 0.00 0.00 84 1010.5
20260901211529 80 89 1.0 4.0 0.00 0.00 0.00 84 1010.5
20260901211037 80 73 2.0 4.0 0.00 0.00 0.00 83 1010.5
20260901210519 80 91 2.0 3.0 0.00 0.00 0.00 83 1010.6
20260901210016 80 101 2.0 4.0 0.00 0.00 0.00 83 1010.6
20260901205525 80 86 2.0 4.0 0.00 0.00 0.00 83 1010.6
20260901205029 80 44 2.0 5.0 0.00 0.00 0.00 83 1010.6
20260901204538 80 79 3.0 5.0 0.00 0.00 0.00 83 1010.7
20260901204021 80 103 2.0 5.0 0.00 0.00 0.00 83 1010.7
20260901203530 80 104 1.0 5.0 0.00 0.00 0.00 83 1010.7
20260901203033 80 89 3.0 6.0 0.00 0.00 0.00 83 1010.5
20260901202515 81 85 4.0 6.0 0.00 0.00 0.00 83 1010.6
20260901202015 81 79 2.0 6.0 0.00 0.00 0.00 83 1010.6
20260901201518 81 68 2.0 5.0 0.00 0.00 0.00 83 1010.6
20260901201029 81 75 2.0 8.0 0.00 0.00 0.00 83 1010.5
20260901200601 81 68 3.0 9.0 0.00 0.00 0.00 83 1010.5
20260901200018 81 22 4.0 8.0 0.00 0.00 0.00 83 1010.5
20260901195527 81 49 4.0 9.0 0.00 0.00 0.00 83 1010.4
20260901195037 81 360 4.0 10.0 0.00 0.00 0.00 84 1010.4
20260901194518 81 340 5.0 10.0 0.00 0.00 0.00 84 1010.5
20260901194027 81 59 3.0 7.0 0.00 0.00 0.00 84 1010.4
20260901193534 81 72 4.0 6.0 0.00 0.00 0.00 84 1010.4
20260901193039 81 86 3.0 7.0 0.00 0.00 0.00 84 1010.5
20260901192520 81 110 3.0 5.0 0.00 0.00 0.00 84 1010.5
20260901192030 81 105 2.0 5.0 0.00 0.00 0.00 84 1010.5
20260901191539 81 80 2.0 5.0 0.00 0.00 0.00 84 1010.5
20260901191019 81 105 2.0 8.0 0.00 0.00 0.00 84 1010.4
20260901190529 81 9 3.0 8.0 0.00 0.00 0.00 84 1010.5
20260901190015 81 77 3.0 7.0 0.00 0.00 0.00 84 1010.4
20260901185521 81 68 2.0 5.0 0.00 0.00 0.00 84 1010.4
20260901185052 81 65 3.0 5.0 0.00 0.00 0.00 84 1010.4
20260901184540 81 23 3.0 6.0 0.00 0.00 0.00 84 1010.5
20260901184018 81 95 3.0 6.0 0.00 0.00 0.00 83 1010.6
20260901183529 81 114 3.0 6.0 0.00 0.00 0.00 83 1010.6
20260901183026 81 73 3.0 6.0 0.00 0.00 0.00 83 1010.6
20260901182526 81 59 3.0 6.0 0.00 0.00 0.00 83 1010.6
20260901182030 81 34 3.0 5.0 0.00 0.00 0.00 83 1010.6
20260901181541 81 68 3.0 6.0 0.00 0.00 0.00 83 1010.6
20260901181021 81 65 3.0 8.0 0.00 0.00 0.00 83 1010.6
20260901180529 81 359 3.0 5.0 0.00 0.00 0.00 83 1010.7
20260901180036 81 70 3.0 7.0 0.00 0.00 0.00 83 1010.7
20260901175517 81 349 4.0 7.0 0.00 0.00 0.00 83 1010.6
20260901175026 81 95 2.0 5.0 0.00 0.00 0.00 83 1010.6
20260901174515 81 133 2.0 5.0 0.00 0.00 0.00 83 1010.6
20260901174039 81 59 3.0 7.0 0.00 0.00 0.00 83 1010.6
20260901173529 81 84 3.0 7.0 0.00 0.00 0.00 83 1010.6
20260901173036 81 73 3.0 7.0 0.00 0.00 0.00 82 1010.6
20260901172518 81 76 3.0 7.0 0.00 0.00 0.00 82 1010.7
20260901172027 81 25 3.0 9.0 0.00 0.00 0.00 82 1010.7
20260901171537 81 92 3.0 9.0 0.00 0.00 0.00 82 1010.8
20260901171020 81 35 3.0 7.0 0.00 0.00 0.00 82 1010.7
20260901170526 81 56 3.0 7.0 0.00 0.00 0.00 82 1010.8
20260901170033 82 101 3.0 8.0 0.00 0.00 0.00 82 1010.7
20260901165603 82 82 4.0 9.0 0.00 0.00 0.00 81 1010.7
20260901165022 82 86 4.0 9.0 0.00 0.00 0.00 81 1010.8
20260901164531 82 27 4.0 7.0 0.00 0.00 0.00 81 1010.7
20260901164036 82 39 4.0 7.0 0.00 0.00 0.00 81 1010.7
20260901163520 82 22 4.0 7.0 0.00 0.00 0.00 80 1010.8
20260901163026 82 72 4.0 6.0 0.00 0.00 0.00 80 1010.8
20260901162531 82 79 3.0 6.0 0.00 0.00 0.00 80 1010.9
20260901162040 82 44 3.0 7.0 0.00 0.00 0.00 79 1010.9
20260901161521 82 27 4.0 7.0 0.00 0.00 0.00 79 1011.0
20260901161052 82 2 4.0 7.0 0.00 0.00 0.00 78 1011.0
20260901160540 82 70 3.0 9.0 0.00 0.00 0.00 78 1011.1
20260901160018 82 72 3.0 9.0 0.00 0.00 0.00 78 1011.0
20260901155529 82 96 4.0 11.0 0.00 0.00 0.00 77 1011.1
20260901155018 82 36 4.0 11.0 0.00 0.00 0.00 77 1011.1
20260901154515 82 53 4.0 8.0 0.00 0.00 0.00 77 1011.1
20260901154024 82 89 4.0 9.0 0.00 0.00 0.00 77 1010.9
20260901153604 82 322 3.0 9.0 0.00 0.00 0.00 77 1011.1
20260901153027 82 32 3.0 8.0 0.00 0.00 0.00 78 1011.1
20260901152538 82 58 4.0 7.0 0.00 0.00 0.00 78 1011.2
20260901152019 82 68 4.0 7.0 0.00 0.00 0.00 78 1011.2
20260901151544 82 69 4.0 7.0 0.00 0.00 0.00 78 1011.2
20260901151033 82 63 2.0 6.0 0.00 0.00 0.00 78 1011.3
20260901150517 82 50 3.0 4.0 0.00 0.00 0.00 78 1011.3
20260901150044 82 99 2.0 4.0 0.00 0.00 0.00 78 1011.3
20260901145540 82 82 2.0 5.0 0.00 0.00 0.00 78 1011.3
20260901145027 82 81 2.0 4.0 0.00 0.00 0.00 78 1011.3
20260901144527 82 97 2.0 4.0 0.00 0.00 0.00 78 1011.3
20260901144054 82 111 2.0 4.0 0.00 0.00 0.00 77 1011.3
20260901143517 82 78 2.0 6.0 0.00 0.00 0.00 77 1011.2
20260901143036 82 121 1.0 5.0 0.00 0.00 0.00 77 1011.3
20260901142546 82 122 2.0 5.0 0.00 0.00 0.00 76 1011.2
20260901142054 82 64 3.0 5.0 0.00 0.00 0.00 76 1011.2
20260901141541 82 85 2.0 8.0 0.00 0.00 0.00 76 1011.2
20260901141043 82 64 3.0 8.0 0.00 0.00 0.00 76 1011.3
20260901140524 82 52 3.0 9.0 0.00 0.00 0.00 76 1011.3
20260901140028 82 17 4.0 9.0 0.00 0.00 0.00 76 1011.4
20260901135537 82 102 3.0 6.0 0.00 0.00 0.00 76 1011.4
20260901135020 82 61 2.0 6.0 0.00 0.00 0.00 76 1011.6
20260901134529 82 79 3.0 7.0 0.00 0.00 0.00 76 1011.5
20260901134037 82 54 2.0 5.0 0.00 0.00 0.00 76 1011.4
20260901133542 82 94 3.0 5.0 0.00 0.00 0.00 76 1011.6
20260901133018 82 89 2.0 6.0 0.00 0.00 0.00 76 1011.5
20260901132521 82 330 3.0 6.0 0.00 0.00 0.00 76 1011.5
20260901132029 82 100 3.0 6.0 0.00 0.00 0.00 76 1011.5
20260901131539 82 33 3.0 6.0 0.00 0.00 0.00 77 1011.4
20260901131021 83 72 3.0 5.0 0.00 0.00 0.00 77 1011.5
20260901130532 82 37 3.0 6.0 0.00 0.00 0.00 77 1011.4
20260901130059 82 69 3.0 6.0 0.00 0.00 0.00 77 1011.3
20260901125521 82 352 3.0 6.0 0.00 0.00 0.00 77 1011.3
20260901125030 82 68 3.0 5.0 0.00 0.00 0.00 77 1011.4
20260901124528 82 109 2.0 5.0 0.00 0.00 0.00 77 1011.4
20260901124058 82 78 2.0 5.0 0.00 0.00 0.00 77 1011.4
20260901123518 82 125 1.0 4.0 0.00 0.00 0.00 77 1011.4
20260901123046 82 140 1.0 4.0 0.00 0.00 0.00 77 1011.4
20260901122535 82 120 0.0 4.0 0.00 0.00 0.00 76 1011.5
20260901122037 82 75 3.0 8.0 0.00 0.00 0.00 76 1011.5
20260901121526 82 106 2.0 8.0 0.00 0.00 0.00 76 1011.6
20260901121023 82 110 2.0 4.0 0.00 0.00 0.00 77 1011.5
20260901120534 83 100 2.0 5.0 0.00 0.00 0.00 77 1011.6
20260901120015 83 72 2.0 5.0 0.00 0.00 0.00 77 1011.5
20260901115523 83 64 1.0 4.0 0.00 0.00 0.00 77 1011.4
20260901115032 83 129 1.0 6.0 0.00 0.00 0.00 77 1011.4
20260901114541 83 84 2.0 6.0 0.00 0.00 0.00 76 1011.3
20260901114024 83 63 3.0 6.0 0.00 0.00 0.00 77 1011.3
20260901113529 83 86 3.0 8.0 0.00 0.00 0.00 77 1011.2
20260901113036 83 82 3.0 8.0 0.00 0.00 0.00 77 1011.1
20260901112518 83 74 4.0 8.0 0.00 0.00 0.00 78 1011.0
20260901112048 83 84 3.0 6.0 0.00 0.00 0.00 78 1011.0
20260901111535 83 70 2.0 7.0 0.00 0.00 0.00 79 1011.0
20260901111018 82 58 3.0 9.0 0.00 0.00 0.00 79 1011.0